Regional Weather Roundup
Issued by NWS Bismarck, ND

Home | Current Version | Previous Version | Text Only | Print | Product List | Glossary On
Versions: 1 2 3 4 5 6 7 8 9 10 11 12 13 14 15 16 17 18 19 20 21 22 23 24 25 26 27 28 29 30 31 32 33 34 35 36 37 38 39 40 41 42 43 44 45 46 47 48 49 50
000
ASUS43 KBIS 221902
RWRBIS

NWR BROADCAST TEXT
NATIONAL WEATHER SERVICE BISMARCK ND
200 PM CDT TUE AUG 22 2017

NOTE: "FAIR" INDICATES FEW OR NO CLOUDS BELOW 12,000 FEET WITH NO
SIGNIFICANT WEATHER AND/OR OBSTRUCTIONS TO VISIBILITY.


CITY           SKY/WX    TMP DP  RH WIND       PRES   REMARKS
WILLISTON      SUNNY     77  38  24 S9        30.17F
MINOT          SUNNY     77  38  24 NW13G22   30.14F
MINOT AFB      SUNNY     75  36  24 NW9G18    30.13F
BISMARCK       SUNNY     76  39  26 W8        30.18F
DICKINSON      SUNNY     75  38  26 VRB5      30.18F
GARRISON         N/A     74  39  28 NW14G24   30.16F
HETTINGER ARPT SUNNY     77  40  26 VRB3      30.20F
JAMESTOWN      SUNNY     71  46  40 NW16      30.14S
CARRINGTON     FAIR      72  45  37 NW15G29   30.17S
HAZEN          FAIR      73  41  31 NW10      30.19F
LINTON         FAIR      75  39  27 NW12G17   30.20F
MANDAN         FAIR      73  43  33 NW13      30.19F
RUGBY          FAIR      73  41  31 NW13G23   30.13F
STANLEY        FAIR      75  37  25 NW8       30.19F
TIOGA          FAIR      73  36  25 N9G16     30.19S
WATFORD CITY   FAIR      75  34  22 VRB3      30.17F
$$

CITY           SKY/WX    TMP DP  RH WIND       PRES   REMARKS
GRAND FORKS    MOSUNNY   75  42  30 NW23G29   30.05S
GRAND FORKS AF SUNNY     75  40  27 N18G30    30.07S
DEVILS LAKE    SUNNY     72  40  31 NW17      30.12F
FARGO          MOSUNNY   75  44  33 NW22G29   30.08S
CANDO          FAIR      73  41  31 NW15G25   30.14F
CAVALIER       FAIR      72  45  37 NW22G33   30.06R
GRAFTON        FAIR      73  45  35 NW22G28   30.07S
GWINNER        CLEAR     73  45  35 NW17G23   30.14S
LANGDON        FAIR      73  39  29 NW18G26   30.10S
ROLLA          FAIR      70  41  35 NW20G26   30.13F
WALHALLA       FAIR      72  70  94 N16G26    30.07R
$$

CITY           SKY/WX    TMP DP  RH WIND       PRES   REMARKS
ABERDEEN       SUNNY     76  42  29 NW13      30.16F
MOBRIDGE       SUNNY     75  47  36 NW3       30.17F
BUFFALO          N/A     81  41  24 S12       30.13F
RAPID CITY     SUNNY     81  44  27 S13G22    30.19F
GLASGOW        SUNNY     79  34  19 VRB5      30.14F
SIDNEY         SUNNY     77  35  21 CALM      30.17F
WOLF POINT     SUNNY     81  35  19 E6        30.15F
GLENDIVE       SUNNY     80  37  21 SE8       30.17F
MILES CITY     SUNNY     83  35  18 VRB3      30.13F
BAKER          SUNNY     80  36  20 VRB5      30.19F
$$

CITY           SKY/WX    TMP DP  RH WIND       PRES   REMARKS
BILLINGS       MOSUNNY   80  38  22 SE5       30.16F
GREAT FALLS    SUNNY     81  34  18 VRB3      30.14F
$$





USA.gov is the U.S. government's official web portal to all federal, state and local government web resources and services.